LiveATC.Net - Listen to live air traffic control over the Internet! Contact LiveATC.net for advertising information


ICAO: LGIR  IATA: HER   Airport: Heraklion International Airport
City: Iraklion
Country: Greece   Continent: Europe
LGIR METAR Weather: LGIR 272120Z 14005KT 9999 SCT025 BKN070 16/12 Q1019 NOSIG
LGIR Flight Activity (FlightAware)
LGIR Radar
Feed Status: DOWN
Last heard on: 2014-11-23 21:06:03 (4 days 0 hours 51 minutes ago)
LGIR Radar Audio Archives
FacilityFrequency
Iraklion Radar123.975


NOTICE

Unauthorized use prohibited. See LiveATC.net Terms of Service


Find LiveATC Audio Streams


Airport/ARTCC Code

Frequency
(e.g., 124.400, 128.75)
Site-wide search

Browse LiveATC Feeds
LiveATC Coverage Map
Top 50 LiveATC Feeds
Bad Weather Areas

LiveATC FAQ
Offer a LiveATC Feed
Contact LiveATC.net
Press Inquiries

LiveATC on iPhone
LiveATC on Android

LiveATC Mobile
(Mobile browser)

ATC Audio Archives
Interesting Recordings

LiveATC Forums


Home Page
About LiveATC.net
Make a Donation
LiveATC Bookstore

Terms of Use
Privacy Policy

ATC/Radar Sites
U.S. ARTCC Freqs
Canadian Air Freqs

AIRMETs/SIGMETs

FAA Airport Status
Nat'l Airspace Status
Arrival Demand Charts


Server Software By:
Icecast.org
Liquidsoap

Please make a donation to help us keep growing!